Location: Austin
(30.3000°N, 97.7500°W)
Time: 22:58:37
(UTC-05:00)

Cosmos 1624 Rocket - Pass Details

Date: 06 May 2026
Orbit: 753 x 778 km, 74.0° (Epoch: 13 May)

Event Time Altitude Azimuth Distance (km) Brightness Sun altitude
Rises 21:14:02 0° 193° (SSW) 3,196 7.1 -13.0°
Reaches altitude 10° 21:16:23 10° 193° (SSW) 2,271 6.3 -13.4°
Maximum altitude 21:21:32 85° 104° (ESE) 760 3.9 -14.4°
Drops below altitude 10° 21:26:42 10° 17° (NNE) 2,278 6.6 -15.3°
Sets 21:29:04 0° 17° (NNE) 3,206 7.4 -15.8°
